COSMOS 249 DEB, 19317

Orbit data source: Space-Track

COSMOS 249 DEB, 19317 is space debris in LEO originally from a launch on Sun, 20 Oct 1968 UTC launched from the Tyuratam Missile And Space Complex (TTMTR). Debris objects in space refer to the collection of defunct objects orbiting the Earth. Examples of debris include non-operational satellites, rocket bodies, and fragments generated from explosions, collisions, or faulty payload assembly.

Loading next visibility...
Identifier
19317, 1968-091DH
Orbit
LEO
Country
Flag of CISCIS
Related business
Manufacturer
Unknown
Mission
Spacecraft
Bus & Motor
Unknown
Mass
Unknown
Launch date (UTC)
1968-10-20 (57 years ago)
Launch vehicle
Unknown
Launch site
Tyuratam Missile And Space Complex (TTMTR)
Object type
Payload
Rocket body
Debris
Shape & HBR
Unknown shape, 0.1 m
Radar Cross Section
Small (<0.1 m²)

Expand to show TLE details & history
Last TLE update: 1 day ago

TLE from 1 day ago
0 COSMOS 249 DEB
1 19317U 68091DH  25286.20336308  .00000456  00000-0  18625-3 0  9993
2 19317  62.8413 213.0011 0743344 187.2182 171.7645 13.42476453814204
Epoch: 2025-10-13T04:52Z
TLE epoch observation values (Epoch: 2025-10-13T04:52:50.570Z)
Latitude
-0.00008°
Longitude
117.78084°
Altitude
1,652.748 km
Speed
6.783 km/s
True Right ascension
14h 12m 00s
True Declination
0° 00' 00"
Sunlit
Object was in daylight at epoch
Visualization orbit readout
Latitude
Unknown
Longitude
Unknown
Altitude
Unknown
Speed
Unknown
Apparent Right ascension
Unknown
Apparent Declination
Unknown
Sunlit
N/A
Visualization observer readout
Local Sidereal Time
01:23:02
Azimuth
Unknown
Elevation
Unknown
Doppler factor
Unknown
Orbital elements
Apogee altitude
1,654.765 km
Perigee altitude
543.154 km
Semi-major axis
7,477.097 km
Eccentricity
0.07433
Inclination
62.8413°
RAAN
213.0011°
Arg. of periapsis
187.2182°
True anomaly
172.88152°
Mean anomaly
171.7645°
Eccentric anomaly
172.33274°
Mean motion
3.35694 °/min
Orbital period
107.24 mins
BSTAR
0.00018625
Loading maneuver chart data...
Computing Atmospheric mass density...
Loading historical data...
Loading historical data...
Loading historical data...
Loading historical data...
Loading historical data...
Loading historical data...
Loading historical data...

Documentation

Showing up to 5 results
|